Owen Roberts, Cayman Islands

4:41 AM EST on May 24, 2017 (GMT -0500)
Roberts International

Weather History for MWCR - December, 2014

Change the Weather History Date:

Tuesday, December 23, 2014

  Actual Average Record
Temperature  
Mean Temperature 80 °F -  
Max Temperature 86 °F 80 °F 87 °F (2002)
Min Temperature 75 °F 73 °F 72 °F (2012)
Cooling Degree Days 16    
Growing Degree Days 30 (Base 50)    
Moisture  
Dew Point 77 °F    
Average Humidity 85    
Maximum Humidity 100    
Minimum Humidity 74    
Precipitation  
Precipitation 0.00 in - - ()
Sea Level Pressure  
Sea Level Pressure 29.87 in    
Wind  
Wind Speed 9 mph ()    
Max Wind Speed 16 mph    
Max Gust Speed -    
Visibility 6.2 miles    
Events      
Averages and records for this station are not official NWS values.
T = Trace of Precipitation, MM = Missing Value Source: Averaged Metar Reports

Daily Weather History Graph

Daily Weather History Graph

Search for Another Location

Airport or City:

Trip Planner

Search our weather history database for the weather conditions in past years. The results will help you decide how hot, cold, wet, or windy it might be!

Date:

Astronomy

Dec. 23, 2014 Rise Set
Actual Time 6:55 AM EST 5:53 PM EST
Civil Twilight 6:31 AM EST 6:17 PM EST
Nautical Twilight 6:04 AM EST 6:45 PM EST
Astronomical Twilight 5:37 AM EST 7:12 PM EST
Moon 8:12 AM EST (12/23) 7:51 PM EST (12/23)
Length of Visible Light 11h 46m
Length of Day
10h 58m
Waxing Crescent, 4% of the Moon is Illuminated
Dec 23
Waxing Crescent
Dec 28
First Quarter
Jan 4
Full
Jan 13
Last Quarter
Jan 20
New

Hourly Weather History & Observations

Time (EST) Temp. Heat Index Dew Point Humidity Pressure Visibility Wind Dir Wind Speed Gust Speed Precip Events Conditions
6:00 AM 77.0 °F - 75.2 °F 94% 29.86 in 6.2 mi East 6.9 mph - N/A   Partly Cloudy
6:55 AM 77.0 °F - 77.0 °F 100% 29.86 in 6.2 mi ENE 5.8 mph - N/A   Partly Cloudy
7:00 AM 78 °F - 77 °F 95% 29.88 in 6 mi ENE 5.8 mph - -   Partly Cloudy
7:52 AM 78.8 °F - 77.0 °F 94% 29.89 in 6.2 mi East 9.2 mph - N/A   Scattered Clouds
8:51 AM 82.4 °F 90.9 °F 77.0 °F 84% 29.92 in 6.2 mi East 13.8 mph - N/A   Partly Cloudy
9:58 AM 84.2 °F 94.1 °F 77.0 °F 79% 29.92 in 6.2 mi ESE 15.0 mph - N/A   Partly Cloudy
10:50 AM 84.2 °F 94.1 °F 77.0 °F 79% 29.92 in 6.2 mi ESE 16.1 mph - N/A   Partly Cloudy
12:00 PM 86.0 °F 96.9 °F 77.0 °F 74% 29.89 in 6.2 mi ESE 9.2 mph - N/A   Partly Cloudy
12:55 PM 84.2 °F 94.1 °F 77.0 °F 79% 29.86 in 6.2 mi ESE 16.1 mph - N/A   Partly Cloudy
1:00 PM 84 °F - 78 °F 76% 29.88 in 6 mi ESE 16.1 mph - -   Scattered Clouds
2:00 PM 86.0 °F 96.9 °F 77.0 °F 74% 29.86 in 6.2 mi ESE 15.0 mph - N/A   Partly Cloudy
3:00 PM 86.0 °F 96.9 °F 77.0 °F 74% 29.83 in 6.2 mi ESE 13.8 mph - N/A   Partly Cloudy
4:00 PM 84.2 °F 92.3 °F 75.2 °F 74% 29.83 in 6.2 mi ESE 13.8 mph - N/A   Partly Cloudy
5:00 PM 82.4 °F 90.9 °F 77.0 °F 84% 29.83 in 6.2 mi ESE 12.7 mph - N/A   Partly Cloudy
6:00 PM 80.6 °F 86.2 °F 75.2 °F 84% 29.83 in 6.2 mi ESE 11.5 mph - N/A   Partly Cloudy
7:00 PM 81 °F - 76 °F 82% 29.85 in 6 mi ESE 11.5 mph - -   Scattered Clouds
7:00 PM 80.6 °F 87.1 °F 77.0 °F 89% 29.83 in 6.2 mi ESE 11.5 mph - N/A   Partly Cloudy
8:00 PM 80.6 °F 87.1 °F 77.0 °F 89% 29.86 in 6.2 mi ESE 9.2 mph - N/A   Partly Cloudy
9:00 PM 80.6 °F 88.1 °F 78.8 °F 94% 29.89 in 6.2 mi ESE 8.1 mph - N/A   Partly Cloudy
10:00 PM 80.6 °F 88.1 °F 78.8 °F 94% 29.89 in 6.2 mi ESE 10.4 mph - N/A   Partly Cloudy